Kalispell, MT

6:33 AM MDT on September 20, 2017 (GMT -0600)
Glacier Park International

Weather History for KGPI - September, 2013

Change the Weather History Date:

Tuesday, September 3, 2013

  Actual Average Record
Temperature  
Mean Temperature 61 °F 59 °F  
Max Temperature 70 °F 75 °F 97 °F (1988)
Min Temperature 52 °F 42 °F 31 °F (1974)
Degree Days  
Heating Degree Days 4 7  
Month to date heating degree days 4 19  
Since 1 July heating degree days 45 189  
Cooling Degree Days 0 0  
Month to date cooling degree days 5 1  
Year to date cooling degree days 240 144  
Growing Degree Days 10 (Base 50)    
Moisture  
Dew Point 54 °F    
Average Humidity 78    
Maximum Humidity 93    
Minimum Humidity 63    
Precipitation  
Precipitation 0.01 in 0.05 in 1.26 in (1911)
Month to date precipitation 0.01 0.14  
Year to date precipitation 10.63 11.75  
Snow  
Snow 0.00 in - - ()
Month to date snowfall 0.0  
Year to date snowfall 10.1  
Since 1 July snowfall 0.0  
Snow Depth 0.00 in    
Sea Level Pressure  
Sea Level Pressure 30.05 in    
Wind  
Wind Speed 2 mph (NNE)    
Max Wind Speed 8 mph    
Max Gust Speed 10 mph    
Visibility 10 miles    
Events Rain    
T = Trace of Precipitation, MM = Missing Value Source: NWS Daily Summary

Daily Weather History Graph

Daily Weather History Graph

Search for Another Location

Airport or City:

Trip Planner

Search our weather history database for the weather conditions in past years. The results will help you decide how hot, cold, wet, or windy it might be!

Date:

Astronomy

Sep. 03, 2013 Rise Set
Actual Time 6:57 AM MDT 8:13 PM MDT
Civil Twilight 6:25 AM MDT 8:45 PM MDT
Nautical Twilight 5:46 AM MDT 9:24 PM MDT
Astronomical Twilight 5:04 AM MDT 10:06 PM MDT
Moon 5:11 AM MDT (9/3) 7:04 PM MDT (9/3)
Length of Visible Light 14h 20m
Length of Day
13h 15m
Waning Crescent, 3% of the Moon is Illuminated
Sep 3
Waning Crescent
Sep 5
New
Sep 12
First Quarter
Sep 19
Full
Sep 26
Last Quarter

Hourly Weather History & Observations

Time (MDT) Temp. Dew Point Humidity Pressure Visibility Wind Dir Wind Speed Gust Speed Precip Events Conditions
12:55 AM 59.0 °F 54.0 °F 83% 29.95 in 10.0 mi NNE 4.6 mph - N/A   Clear
1:55 AM 55.9 °F 53.1 °F 90% 29.97 in 10.0 mi Calm Calm - N/A   Clear
2:55 AM 55.9 °F 53.1 °F 90% 29.99 in 10.0 mi Calm Calm - N/A   Clear
3:55 AM 53.1 °F 51.1 °F 93% 29.99 in 10.0 mi Calm Calm - N/A   Clear
4:55 AM 55.0 °F 52.0 °F 89% 30.00 in 10.0 mi Calm Calm - N/A   Clear
5:55 AM 57.0 °F 53.1 °F 87% 29.98 in 10.0 mi WNW 3.5 mph - N/A   Clear
6:55 AM 57.0 °F 52.0 °F 83% 30.00 in 10.0 mi Calm Calm - N/A   Clear
7:55 AM 57.0 °F 52.0 °F 83% 30.04 in 10.0 mi North 3.5 mph - N/A   Mostly Cloudy
8:55 AM 61.0 °F 55.0 °F 81% 30.05 in 10.0 mi Calm Calm - N/A   Mostly Cloudy
9:55 AM 62.1 °F 54.0 °F 75% 30.05 in 10.0 mi ENE 4.6 mph - 0.00 in   Overcast
10:55 AM 64.0 °F 55.0 °F 73% 30.06 in 10.0 mi Calm Calm - N/A   Mostly Cloudy
11:55 AM 64.9 °F 53.1 °F 65% 30.07 in 10.0 mi NNE 8.1 mph - N/A   Overcast
12:55 PM 66.0 °F 54.0 °F 65% 30.07 in 10.0 mi NE 6.9 mph - 0.00 in   Overcast
1:55 PM 64.9 °F 55.9 °F 73% 30.09 in 10.0 mi Calm Calm - 0.00 in Rain Light Rain
2:55 PM 64.9 °F 55.9 °F 73% 30.09 in 10.0 mi Calm Calm - 0.01 in Rain Light Rain
3:55 PM 66.9 °F 55.0 °F 66% 30.09 in 10.0 mi NE 4.6 mph - 0.00 in   Overcast
4:55 PM 66.9 °F 57.0 °F 70% 30.09 in 10.0 mi Calm Calm - 0.00 in Rain Light Rain
5:55 PM 66.9 °F 57.9 °F 73% 30.07 in 10.0 mi Calm Calm - 0.00 in   Mostly Cloudy
6:55 PM 66.9 °F 57.9 °F 73% 30.06 in 10.0 mi Calm Calm - N/A   Partly Cloudy
7:55 PM 66.0 °F 57.9 °F 75% 30.07 in 10.0 mi North 3.5 mph - N/A   Clear
8:55 PM 62.1 °F 55.0 °F 78% 30.08 in 10.0 mi NE 4.6 mph - N/A   Clear
9:55 PM 59.0 °F 55.0 °F 87% 30.08 in 10.0 mi Calm Calm - N/A   Clear
10:55 PM 57.0 °F 55.0 °F 93% 30.08 in 10.0 mi Calm Calm - N/A   Clear
11:55 PM 55.0 °F 54.0 °F 96% 30.09 in 10.0 mi Calm Calm - N/A   Clear